[[{"header":{"parameterUnit":"m.s-1","parameterCategory":1,"la1":30.2991,"la2":30.254,"lo1":-89.0895,"lo2":-89.0444,"dy":0.0017,"dx":0.0017,"nx":28,"ny":28,"refTime":"2024-05-31T09:00:00:Z","depth":0,"parameterNumber":2,"parameterNumberName":"U-component_of_WINDS"},"data":[0,0,0,0,0,0,0,0,0,0,0,0,0,0,0,0,0,0,0,0,0,0,0,0,0,0,0,0,0,0,0,0,0,0,0,0,0,0,0,0,0,0,0,0,0,0,0,0,0,0,0,0,0,0,0,0,0,0,-6.2866,-6.2862,0,-6.2474,-6.247,-6.2465,-6.2204,-6.2202,-6.22,-6.2198,-6.1772,-6.1762,-6.1753,0,0,0,0,0,0,0,0,0,0,0,0,0,-6.3368,-6.336,-6.2866,-6.2862,-6.2857,-6.2475,-6.2469,-6.2464,-6.2204,-6.2202,-6.22,-6.2198,-6.1775,-6.1764,-6.1752,0,0,0,0,0,0,0,0,0,0,0,0,0,-6.308,-6.3358,-6.2867,-6.2682,-6.2661,-6.2476,-6.2469,-6.2463,-6.2204,-6.2202,-6.2199,-6.2197,-6.1779,-6.1765,-6.175,-6.1711,0,0,-6.1705,-6.1699,0,0,0,0,0,0,0,0,-6.3097,-6.3062,-6.2714,-6.2694,-6.2671,-6.2386,-6.2489,-6.221,-6.2205,-6.2377,-6.2198,-6.2195,-6.1976,-6.1945,-6.1877,-6.1691,-6.1673,-6.1704,-6.1695,-6.1689,-6.1685,0,0,0,0,0,0,0,-6.3117,-6.3077,-6.271,-6.2709,-6.2683,-6.261,-6.2567,-6.2435,-6.2195,-6.2362,-6.2342,-6.23,-6.1964,-6.1892,-6.1865,-6.1667,-6.1705,-6.1692,-6.1682,-6.1677,-6.1429,-6.1431,0,0,0,0,0,0,-6.3169,-6.3096,-6.2723,-6.2699,-6.2883,-6.2604,-6.2555,-6.2479,-6.2196,-6.2151,-6.2303,-6.229,-6.1918,-6.1882,-6.1849,-6.1783,-6.1689,-6.1675,-6.1667,-6.1426,-6.1429,-6.1431,0,0,0,0,0,0,-6.3181,-6.3139,-6.2738,-6.2892,-6.2835,-6.2598,-6.2515,-6.2473,-6.24,-6.2152,-6.2105,-6.2275,-6.1914,-6.1869,-6.1749,-6.1765,-6.1669,-6.1655,-6.1424,-6.1427,-6.143,-6.1654,0,0,0,0,0,0,-6.3197,-6.3145,-6.3132,-6.2894,-6.2829,-6.2653,-6.2516,-6.2467,-6.2379,-6.2358,-6.2113,-6.2069,-6.1909,-6.1772,-6.1735,-6.1743,-6.1644,-6.1421,-6.1425,-6.1429,-6.1644,-6.1664,-6.1682,0,0,0,0,0,-6.3216,-6.3205,-6.3133,-6.3089,-6.2809,-6.2654,-6.2616,-6.2438,-6.2381,-6.2363,-6.2204,-6.2077,-6.1772,-6.1762,-6.1717,-6.1722,-6.1419,-6.1424,-6.1429,-6.1635,-6.166,-6.1681,0,0,0,0,0,0,-6.344,-6.317,-6.3087,-6.3,-6.2854,-6.2611,-6.2582,-6.247,-6.2329,-6.2314,-6.2093,-6.204,-6.1942,-6.1819,-6.1815,-6.1669,-6.158,-6.1576,-6.1752,-6.1773,-6.1792,-6.1821,-6.1632,0,0,0,0,0,-6.3483,-6.3387,-6.3152,-6.3098,-6.303,-6.2821,-6.2746,-6.2624,-6.2458,-6.2392,-6.2223,-6.2062,-6.1929,-6.1845,-6.1708,-6.1627,-6.1567,-6.1608,-6.1627,-6.1644,-6.1641,-6.1586,-6.1601,-6.1448,-6.1448,-6.1447,0,0,-6.3562,-6.3403,-6.3354,-6.314,-6.3011,-6.2911,-6.2769,-6.2667,-6.2588,-6.2373,-6.2251,-6.2124,-6.1927,-6.1828,-6.1774,-6.1722,-6.1672,-6.165,-6.1666,-6.1652,-6.1593,-6.1608,-6.1621,-6.1451,-6.145,-6.145,0,0,-6.3658,-6.3531,-6.3472,-6.3349,-6.3161,-6.3022,-6.3009,-6.2784,-6.2693,-6.257,-6.2408,-6.2307,-6.2083,-6.1951,-6.1854,-6.1908,-6.1783,-6.1869,-6.1965,-6.1915,-6.1927,-6.1937,-6.1952,-6.1961,-6.1868,-6.1869,-6.1869,0,-6.3778,-6.3628,-6.3453,-6.3364,-6.3272,-6.3085,-6.302,-6.2906,-6.268,-6.2617,-6.2566,-6.2284,-6.2138,-6.2004,-6.2019,-6.1948,-6.192,-6.1892,-6.1942,-6.1949,-6.1955,-6.1967,-6.1974,-6.188,-6.1879,-6.1878,-6.1877,0,-6.3785,-6.3684,-6.3658,-6.3455,-6.336,-6.3284,-6.309,-6.3015,-6.2903,-6.2769,-6.2644,-6.2466,-6.229,-6.225,-6.2135,-6.2099,-6.2073,-6.1986,-6.1889,-6.1984,-6.1991,-6.1995,-6.1896,-6.1892,-6.1889,-6.1886,0,0,-6.4002,-6.3711,-6.3704,-6.361,-6.3392,-6.3305,-6.3219,-6.3058,-6.2996,-6.2847,-6.2765,-6.2584,-6.2503,-6.2394,-6.2263,-6.222,-6.2271,-6.2136,-6.2128,-6.2164,-6.2216,-6.228,-6.2289,-6.2191,-6.2192,-6.2192,-6.2231,0,-6.4061,-6.3905,-6.3748,-6.3644,-6.3546,-6.337,-6.3294,-6.3149,-6.3022,-6.2915,-6.2771,-6.2646,-6.255,-6.2483,-6.2434,-6.2276,-6.2277,-6.2271,-6.2104,-6.2101,-6.2155,-6.2293,-6.2359,-6.2405,-6.2233,-6.2233,-6.2234,0,-6.4106,-6.3977,-6.3868,-6.3662,-6.3614,-6.355,-6.339,-6.3293,-6.3123,-6.3033,-6.2917,-6.2781,-6.2675,-6.2599,-6.2446,-6.2446,-6.2369,-6.2282,-6.2279,-6.2251,-6.2169,-6.2264,-6.2415,-6.2421,-6.2237,-6.2237,-6.2236,0,-6.4272,-6.4069,-6.3978,-6.3903,-6.3662,-6.3621,-6.3517,-6.3346,-6.326,-6.3118,-6.3058,-6.2904,-6.2817,-6.2698,-6.2521,-6.2483,-6.2387,-6.2295,-6.2303,-6.2308,-6.2284,-6.2287,-6.2421,-6.2246,-6.2246,-6.2245,-6.2245,0,-6.435,-6.4288,-6.405,-6.3993,-6.3918,-6.3736,-6.3664,-6.3543,-6.3394,-6.3305,-6.3142,-6.306,-6.2836,-6.2726,-6.2587,-6.2481,-6.2443,-6.2363,-6.2325,-6.2374,-6.2384,-6.2315,-6.2305,-6.2247,-6.2247,-6.2246,-6.2246,0,-6.4519,-6.4358,-6.4246,-6.4031,-6.3976,-6.3929,-6.3741,-6.3675,-6.3544,-6.3434,-6.3397,-6.3187,-6.305,-6.2866,-6.2667,-6.2574,-6.2483,-6.2428,-6.2544,-6.252,-6.2537,-6.2537,-6.2627,-6.2627,-6.2459,-6.2461,-6.2463,0,-6.4577,-6.4527,-6.4311,-6.4245,-6.4149,-6.4043,-6.3958,-6.3777,-6.3693,-6.35,-6.3457,-6.331,-6.3181,-6.2969,-6.2793,-6.2642,-6.2578,-6.262,-6.2552,-6.2604,-6.2572,-6.2576,-6.2568,-6.2634,-6.2637,-6.264,-6.2641,0,-6.4695,-6.462,-6.4508,-6.4369,-6.4275,-6.4153,-6.4024,-6.3977,-6.3767,-6.368,-6.3544,-6.3446,-6.3251,-6.3104,-6.2931,-6.2813,-6.269,-6.2667,-6.2659,-6.2705,-6.2773,-6.2732,-6.2583,-6.2662,-6.266,-6.2659,-6.2658,-6.2657,-6.4806,-6.4754,-6.4596,-6.4476,-6.4363,-6.4248,-6.4177,-6.4042,-6.3928,-6.376,-6.3659,-6.3526,-6.3356,-6.3113,-6.3004,-6.2891,-6.2842,-6.2833,-6.2829,-6.2829,-6.2844,-6.2798,-6.2859,-6.2858,-6.2858,-6.2857,-6.2856,0,-6.4913,-6.4805,-6.4698,-6.4528,-6.4434,-6.434,-6.4192,-6.4116,-6.4005,-6.3863,-6.3744,-6.3586,-6.3445,-6.3263,-6.3108,-6.3053,-6.2992,-6.3017,-6.3016,-6.299,-6.2898,-6.2918,-6.3069,-6.3069,-6.3069,-6.3069,-6.3069,-6.3069,-6.4957,-6.4865,-6.4772,-6.462,-6.4509,-6.4386,-6.431,-6.42,-6.4087,-6.3922,-6.3808,-6.3694,-6.3533,-6.3366,-6.3231,-6.318,-6.3128,-6.317,-6.3101,-6.3016,-6.2997,-6.2979,-6.2996,-6.3161,-6.3161,-6.3202,-6.3202,-6.3203]},{"header":{"parameterUnit":"m.s-1","parameterCategory":1,"la1":30.2991,"la2":30.254,"lo1":-89.0895,"lo2":-89.0444,"dy":0.0017,"dx":0.0017,"nx":28,"ny":28,"refTime":"2024-05-31T09:00:00:Z","depth":0,"parameterNumber":3,"parameterNumberName":"V-component_of_WINDS"},"data":[0,0,0,0,0,0,0,0,0,0,0,0,0,0,0,0,0,0,0,0,0,0,0,0,0,0,0,0,0,0,0,0,0,0,0,0,0,0,0,0,0,0,0,0,0,0,0,0,0,0,0,0,0,0,0,0,0,0,5.2096,5.2099,0,5.23,5.2303,5.2305,5.2337,5.2335,5.2333,5.2332,5.2548,5.2555,5.2562,0,0,0,0,0,0,0,0,0,0,0,0,0,5.1738,5.1745,5.2096,5.2099,5.2101,5.23,5.2303,5.2306,5.2337,5.2335,5.2333,5.2331,5.2545,5.2554,5.2563,0,0,0,0,0,0,0,0,0,0,0,0,0,5.1913,5.1747,5.2096,5.2141,5.2147,5.2299,5.2303,5.2306,5.2338,5.2335,5.2332,5.233,5.2542,5.2553,5.2564,5.2688,0,0,5.2598,5.2603,0,0,0,0,0,0,0,0,5.1903,5.1927,5.2132,5.2138,5.2145,5.229,5.2256,5.2435,5.2339,5.2266,5.2332,5.2329,5.2465,5.2482,5.2527,5.2698,5.2708,5.2599,5.2606,5.2611,5.2614,0,0,0,0,0,0,0,5.1891,5.1918,5.2177,5.2135,5.2143,5.2152,5.2174,5.229,5.2378,5.2272,5.2275,5.2298,5.2468,5.2516,5.2532,5.2711,5.2599,5.2609,5.2616,5.262,5.2993,5.2996,0,0,0,0,0,0,5.187,5.1908,5.2171,5.2183,5.2015,5.2161,5.2185,5.2247,5.2377,5.2394,5.23,5.2299,5.2498,5.2519,5.254,5.2693,5.2611,5.2621,5.2628,5.299,5.2993,5.2997,0,0,0,0,0,0,5.1862,5.1893,5.2163,5.2046,5.2081,5.217,5.2239,5.2252,5.23,5.2398,5.2415,5.2332,5.2497,5.2524,5.265,5.2701,5.2626,5.2637,5.2986,5.2991,5.2995,5.2999,0,0,0,0,0,0,5.1852,5.189,5.1938,5.2047,5.2087,5.2268,5.2242,5.2258,5.2318,5.2318,5.2433,5.245,5.2497,5.2633,5.2661,5.2715,5.2645,5.2982,5.2988,5.2994,5.2995,5.3004,5.3011,0,0,0,0,0,5.1839,5.1933,5.194,5.1971,5.2148,5.2271,5.2294,5.2345,5.2322,5.2371,5.2434,5.2446,5.269,5.2646,5.2678,5.2735,5.2979,5.2986,5.2993,5.2992,5.3002,5.3011,0,0,0,0,0,0,5.183,5.1948,5.1957,5.2089,5.2169,5.2276,5.2339,5.2354,5.2445,5.2442,5.2502,5.2528,5.2651,5.2706,5.2654,5.2861,5.2833,5.2847,5.2821,5.2832,5.2839,5.2824,5.2655,0,0,0,0,0,5.1843,5.1931,5.203,5.2137,5.2176,5.225,5.2306,5.2337,5.2424,5.2459,5.2532,5.2617,5.2713,5.2775,5.2869,5.3003,5.3028,5.3058,5.3066,5.3072,5.3083,5.3157,5.3172,5.302,5.302,5.302,0,0,5.1872,5.1947,5.2,5.2137,5.2203,5.2294,5.2279,5.2377,5.2446,5.2475,5.2598,5.2653,5.2753,5.2883,5.2944,5.2933,5.313,5.3081,5.3085,5.3094,5.3166,5.318,5.3193,5.3025,5.3024,5.3024,0,0,5.1971,5.2036,5.2131,5.2196,5.2295,5.2343,5.2365,5.247,5.2507,5.263,5.2653,5.2736,5.2901,5.297,5.3027,5.3147,5.3162,5.3176,5.3219,5.329,5.3302,5.3313,5.3356,5.3371,5.3188,5.3188,5.3188,0,5.1995,5.2131,5.2179,5.2275,5.2334,5.2361,5.2458,5.252,5.2645,5.2686,5.2671,5.2875,5.2945,5.309,5.3119,5.3164,5.3193,5.3165,5.3296,5.3307,5.3318,5.336,5.3376,5.3189,5.3189,5.3188,5.3188,0,5.2155,5.225,5.2315,5.2431,5.2498,5.2594,5.2657,5.2719,5.2743,5.2793,5.2918,5.3001,5.3111,5.3148,5.3175,5.3298,5.3287,5.3283,5.3256,5.3333,5.3373,5.339,5.319,5.319,5.3189,5.3189,0,0,5.2259,5.2396,5.242,5.2472,5.2581,5.2655,5.2752,5.2857,5.2909,5.2993,5.3077,5.3213,5.3209,5.3273,5.3307,5.337,5.3459,5.3358,5.3361,5.3374,5.36,5.3603,5.362,5.3468,5.3472,5.3474,5.3591,0,5.237,5.2541,5.2585,5.2732,5.2819,5.2843,5.2928,5.3004,5.3053,5.3135,5.319,5.3285,5.3272,5.3311,5.3373,5.3435,5.3506,5.3427,5.3549,5.3552,5.3524,5.3642,5.3646,5.3753,5.3608,5.361,5.3612,0,5.2525,5.2609,5.2763,5.2857,5.2896,5.297,5.3068,5.3146,5.3233,5.3264,5.3334,5.3361,5.3464,5.3429,5.3573,5.3518,5.357,5.3608,5.3613,5.3628,5.3588,5.366,5.3788,5.3804,5.3638,5.3636,5.3634,0,5.2585,5.2736,5.2847,5.2891,5.3004,5.3056,5.3106,5.319,5.3249,5.3336,5.3375,5.3473,5.3527,5.3603,5.3656,5.3626,5.3795,5.3765,5.3825,5.3824,5.3861,5.3858,5.4,5.3893,5.3892,5.3892,5.3892,0,5.2706,5.2799,5.2875,5.2944,5.3048,5.3097,5.3201,5.3252,5.3326,5.3405,5.3433,5.3508,5.3573,5.3657,5.37,5.3812,5.3836,5.3865,5.3876,5.3863,5.386,5.39,5.3894,5.3896,5.3895,5.3895,5.3894,0,5.2792,5.2846,5.2968,5.3064,5.309,5.3163,5.3246,5.3314,5.3361,5.3461,5.3488,5.3564,5.3663,5.3723,5.3851,5.3879,5.4003,5.401,5.3973,5.3978,5.4034,5.4028,5.4207,5.4233,5.4107,5.4108,5.4109,0,5.2867,5.2938,5.3039,5.3093,5.3142,5.3229,5.3288,5.3339,5.34,5.3502,5.3558,5.3658,5.3742,5.39,5.3968,5.4066,5.4076,5.4132,5.4091,5.4076,5.4078,5.4073,5.408,5.4139,5.414,5.4141,5.4142,0,5.2994,5.3015,5.3098,5.3189,5.3258,5.3333,5.3408,5.3451,5.3514,5.3581,5.3681,5.3746,5.3873,5.3973,5.4075,5.413,5.4147,5.4153,5.4173,5.4162,5.4137,5.4151,5.3992,5.415,5.4149,5.4149,5.4148,5.4148,5.3077,5.3141,5.3221,5.3311,5.3371,5.344,5.3508,5.3561,5.3645,5.375,5.3775,5.388,5.3964,5.4103,5.4158,5.4243,5.4234,5.4262,5.4269,5.4276,5.4277,5.4121,5.4262,5.4262,5.4262,5.4261,5.4261,0,5.3206,5.3257,5.3339,5.3441,5.3512,5.3517,5.3599,5.3659,5.375,5.3825,5.3905,5.4019,5.4115,5.4189,5.4288,5.4341,5.4352,5.4366,5.4363,5.4375,5.4279,5.4253,5.4355,5.4355,5.4355,5.4355,5.4355,5.4355,5.3281,5.3389,5.3419,5.3557,5.3609,5.3709,5.3755,5.3819,5.3878,5.4004,5.4082,5.4127,5.4202,5.4306,5.4395,5.4414,5.445,5.4462,5.4483,5.4392,5.4382,5.4373,5.4348,5.447,5.447,5.4573,5.4574,5.4575]}]]